Weather History for Russellville, AR

Change the Weather History Date:

Tuesday, November 13, 2012

  Actual Average (KHOT) Record (KHOT)
Temperature  
Mean Temperature 42 °F -  
Max Temperature 55 °F 63 °F 84 °F (1955)
Min Temperature 28 °F 38 °F 19 °F (1986)
Degree Days  
Heating Degree Days 24    
Moisture  
Dew Point 29 °F    
Average Humidity 68    
Maximum Humidity 92    
Minimum Humidity 31    
Precipitation  
Precipitation 0.00 in - - ()
Sea Level Pressure  
Sea Level Pressure 30.46 in    
Wind  
Wind Speed 1 mph (ESE)    
Max Wind Speed 5 mph    
Max Gust Speed -    
Visibility 10 miles    
Events      
Averages and records for this station are not official NWS values.
T = Trace of Precipitation, MM = Missing Value Source: NWS Daily Summary

Daily Weather History Graph

Daily Weather History Graph

Search for Another Location

Airport:

Trip Planner

Search our weather history database for the weather conditions in past years. The results will help you decide how hot, cold, wet, or windy it might be!

Date:

Astronomy

Nov. 13, 2012 Rise Set
Actual Time 6:45 AM CST 5:07 PM CST
Civil Twilight 6:18 AM CST 5:34 PM CST
Nautical Twilight 5:48 AM CST 6:04 PM CST
Astronomical Twilight 5:18 AM CST 6:34 PM CST
Moon 6:24 AM CST (11/13) 5:01 PM CST (11/13)
Length of Visible Light 11h 15m
Length of Day
10h 21m
Waning Crescent, 0% of the Moon is Illuminated
Nov 13
Waning Crescent
Nov 13
New
Nov 20
First Quarter
Nov 28
Full
Dec 6
Last Quarter

Hourly Weather History & Observations

Time (CST) Temp. Dew Point Humidity Pressure Visibility Wind Dir Wind Speed Gust Speed Precip Events Conditions
12:53 AM 30.9 °F 28.9 °F 92% 30.51 in 10.0 mi Calm Calm - N/A   Clear
1:53 AM 30.0 °F 28.0 °F 92% 30.49 in 9.0 mi Calm Calm - N/A   Clear
3:53 AM 28.9 °F 27.0 °F 92% 30.50 in 8.0 mi Calm Calm - N/A   Clear
4:53 AM 28.0 °F 26.1 °F 92% 30.51 in 10.0 mi Calm Calm - N/A   Clear
6:53 AM 28.0 °F 25.0 °F 88% 30.53 in 9.0 mi Calm Calm - N/A   Clear
7:53 AM 32.0 °F 30.0 °F 92% 30.53 in 10.0 mi Calm Calm - N/A   Clear
8:53 AM 37.0 °F 30.9 °F 79% 30.55 in 10.0 mi Calm Calm - N/A   Clear
9:53 AM 44.1 °F 30.9 °F 60% 30.54 in 10.0 mi Calm Calm - N/A   Clear
10:53 AM 50.0 °F 32.0 °F 50% 30.53 in 10.0 mi Calm Calm - N/A   Clear
11:53 AM 53.1 °F 23.0 °F 31% 30.48 in 10.0 mi Variable 4.6 mph - N/A   Clear
12:53 PM 54.0 °F 26.1 °F 34% 30.44 in 10.0 mi Variable 4.6 mph - N/A   Clear
1:53 PM 55.9 °F 27.0 °F 33% 30.42 in 10.0 mi Variable 4.6 mph - N/A   Clear
2:53 PM 55.0 °F 25.0 °F 31% 30.40 in 10.0 mi Calm Calm - N/A   Clear
3:53 PM 55.0 °F 25.0 °F 31% 30.39 in 10.0 mi ESE 4.6 mph - N/A   Clear
4:53 PM 50.0 °F 27.0 °F 41% 30.38 in 10.0 mi Calm Calm - N/A   Clear
5:53 PM 41.0 °F 32.0 °F 70% 30.39 in 10.0 mi Calm Calm - N/A   Clear
6:53 PM 37.0 °F 30.9 °F 79% 30.40 in 10.0 mi Calm Calm - N/A   Clear
7:53 PM 36.0 °F 30.0 °F 79% 30.42 in 10.0 mi Calm Calm - N/A   Clear
8:53 PM 35.1 °F 30.0 °F 82% 30.44 in 10.0 mi Calm Calm - N/A   Clear
9:53 PM 34.0 °F 30.0 °F 85% 30.45 in 10.0 mi Calm Calm - N/A   Clear
10:53 PM 35.1 °F 30.9 °F 85% 30.45 in 10.0 mi Calm Calm - N/A   Clear
11:53 PM 36.0 °F 33.1 °F 89% 30.43 in 10.0 mi Calm Calm - N/A   Clear